PTRCE SNCW-SNRU

Flight info

Callsign PTRCE
Flight time 2h 26m
Altitude 29000
Route PANUP UZ81 ISUPI UM791 UGTUN UZ70 ASEVA
Aircraft TBM8/L-SDFGRWY/S

Departure

Time 2026-05-07 20:03
Airport Alcântara Space Center Airport (SNCW)

Arrival

Time 2026-05-07 22:29
Airport Caruaru Airport (SNRU)
Time Latitude Longitude Altitude Speed Heading
2026-05-07 19:40 -2.37711 -44.39923 145 ft 0 kts 96°
2026-05-07 19:58 -2.37693 -44.39909 151 ft 4 kts 306°
2026-05-07 19:58 -2.37680 -44.39956 151 ft 12 kts 310°
2026-05-07 19:59 -2.37580 -44.39982 151 ft 13 kts 348°
2026-05-07 19:59 -2.37522 -44.39994 151 ft 5 kts 341°
2026-05-07 19:59 -2.37489 -44.40006 150 ft 7 kts 340°
2026-05-07 19:59 -2.37443 -44.40063 150 ft 18 kts 276°
2026-05-07 20:00 -2.37474 -44.40202 149 ft 22 kts 251°
2026-05-07 20:00 -2.37522 -44.40347 148 ft 23 kts 249°
2026-05-07 20:00 -2.37579 -44.40525 149 ft 28 kts 254°
2026-05-07 20:00 -2.37626 -44.40671 151 ft 17 kts 245°
2026-05-07 20:01 -2.37674 -44.40727 151 ft 7 kts 256°
2026-05-07 20:01 -2.37640 -44.40736 150 ft 8 kts 68°
2026-05-07 20:01 -2.37637 -44.40725 151 ft 0 kts 70°
2026-05-07 20:01 -2.37637 -44.40724 151 ft 4 kts 70°
2026-05-07 20:02 -2.37584 -44.40558 150 ft 47 kts 73°
2026-05-07 20:02 -2.37443 -44.40101 149 ft 88 kts 71°
2026-05-07 20:02 -2.37228 -44.39416 197 ft 114 kts 71°
2026-05-07 20:02 -2.36944 -44.38596 278 ft 135 kts 76°
2026-05-07 20:03 -2.36886 -44.37651 586 ft 139 kts 106°
2026-05-07 20:03 -2.37555 -44.36974 922 ft 146 kts 154°
2026-05-07 20:03 -2.38465 -44.36518 1255 ft 147 kts 139°
2026-05-07 20:03 -2.39113 -44.35755 1676 ft 143 kts 120°
2026-05-07 20:04 -2.39642 -44.34917 2028 ft 143 kts 117°
2026-05-07 20:04 -2.40162 -44.34065 2379 ft 143 kts 118°
2026-05-07 20:04 -2.40680 -44.33214 2703 ft 143 kts 119°
2026-05-07 20:04 -2.41192 -44.32365 3072 ft 143 kts 121°
2026-05-07 20:05 -2.41699 -44.31508 3469 ft 143 kts 120°
2026-05-07 20:05 -2.42211 -44.30659 3933 ft 143 kts 121°
2026-05-07 20:05 -2.42695 -44.29803 4379 ft 143 kts 119°
2026-05-07 20:05 -2.43226 -44.28962 4813 ft 143 kts 122°
2026-05-07 20:06 -2.43746 -44.28111 5193 ft 144 kts 120°
2026-05-07 20:06 -2.44262 -44.27252 5570 ft 145 kts 120°
2026-05-07 20:06 -2.44782 -44.26385 5935 ft 146 kts 120°
2026-05-07 20:06 -2.45304 -44.25514 6295 ft 147 kts 120°
2026-05-07 20:07 -2.45830 -44.24636 6633 ft 148 kts 120°
2026-05-07 20:07 -2.46363 -44.23750 6960 ft 149 kts 120°
2026-05-07 20:07 -2.46897 -44.22860 7298 ft 150 kts 120°
2026-05-07 20:07 -2.47435 -44.21964 7626 ft 151 kts 120°
2026-05-07 20:08 -2.47977 -44.21061 7960 ft 151 kts 120°
2026-05-07 20:08 -2.48520 -44.20158 8289 ft 152 kts 120°
2026-05-07 20:08 -2.49067 -44.19247 8617 ft 154 kts 120°
2026-05-07 20:08 -2.49621 -44.18326 8954 ft 154 kts 120°
2026-05-07 20:09 -2.50176 -44.17401 9280 ft 156 kts 119°
2026-05-07 20:09 -2.50738 -44.16462 9590 ft 158 kts 120°
2026-05-07 20:09 -2.51308 -44.15518 9921 ft 158 kts 119°
2026-05-07 20:10 -2.52447 -44.13619 10539 ft 159 kts 119°
2026-05-07 20:10 -2.53017 -44.12670 10866 ft 159 kts 118°
2026-05-07 20:10 -2.53591 -44.11713 11145 ft 161 kts 119°
2026-05-07 20:10 -2.54170 -44.10749 11442 ft 162 kts 119°
2026-05-07 20:11 -2.54741 -44.09798 11732 ft 163 kts 119°
2026-05-07 20:11 -2.55327 -44.08822 12027 ft 164 kts 118°
2026-05-07 20:11 -2.55917 -44.07840 12315 ft 165 kts 118°
2026-05-07 20:11 -2.56509 -44.06853 12611 ft 166 kts 118°
2026-05-07 20:12 -2.57106 -44.05860 12896 ft 166 kts 118°
2026-05-07 20:12 -2.57703 -44.04866 13189 ft 167 kts 118°
2026-05-07 20:12 -2.58302 -44.03866 13477 ft 168 kts 118°
2026-05-07 20:12 -2.58908 -44.02858 13771 ft 169 kts 118°
2026-05-07 20:13 -2.59514 -44.01848 14037 ft 170 kts 118°
2026-05-07 20:13 -2.60123 -44.00832 14306 ft 171 kts 118°
2026-05-07 20:13 -2.60739 -43.99806 14579 ft 173 kts 118°
2026-05-07 20:13 -2.61360 -43.98771 14839 ft 174 kts 118°
2026-05-07 20:14 -2.61987 -43.97728 15112 ft 175 kts 118°
2026-05-07 20:14 -2.62612 -43.96683 15363 ft 176 kts 118°
2026-05-07 20:14 -2.63248 -43.95626 15597 ft 178 kts 118°
2026-05-07 20:14 -2.63887 -43.94562 15846 ft 178 kts 118°
2026-05-07 20:15 -2.64530 -43.93490 16078 ft 180 kts 118°
2026-05-07 20:15 -2.65171 -43.92419 16299 ft 182 kts 118°
2026-05-07 20:15 -2.65782 -43.91311 16571 ft 180 kts 107°
2026-05-07 20:15 -2.66046 -43.90083 16780 ft 182 kts 98°
2026-05-07 20:16 -2.66308 -43.88847 17049 ft 181 kts 99°
2026-05-07 20:16 -2.66578 -43.87602 17246 ft 185 kts 99°
2026-05-07 20:16 -2.66843 -43.86341 17474 ft 186 kts 99°
2026-05-07 20:16 -2.67113 -43.85068 17706 ft 188 kts 99°
2026-05-07 20:17 -2.67382 -43.83790 17937 ft 189 kts 99°
2026-05-07 20:17 -2.67653 -43.82502 18176 ft 189 kts 98°
2026-05-07 20:17 -2.67922 -43.81224 18378 ft 191 kts 100°
2026-05-07 20:17 -2.68196 -43.79917 18573 ft 192 kts 100°
2026-05-07 20:18 -2.68473 -43.78602 18745 ft 194 kts 99°
2026-05-07 20:18 -2.68754 -43.77278 18950 ft 195 kts 100°
2026-05-07 20:18 -2.69036 -43.75951 19137 ft 196 kts 100°
2026-05-07 20:18 -2.69311 -43.74614 19325 ft 197 kts 99°
2026-05-07 20:19 -2.69574 -43.73265 19507 ft 198 kts 100°
2026-05-07 20:19 -2.69869 -43.71918 19694 ft 199 kts 101°
2026-05-07 20:19 -2.70166 -43.70559 19877 ft 200 kts 101°
2026-05-07 20:19 -2.70455 -43.69195 20062 ft 201 kts 99°
2026-05-07 20:20 -2.70743 -43.67819 20239 ft 203 kts 100°
2026-05-07 20:20 -2.71034 -43.66435 20420 ft 204 kts 99°
2026-05-07 20:20 -2.71327 -43.65046 20604 ft 204 kts 100°
2026-05-07 20:20 -2.71621 -43.63654 20780 ft 206 kts 99°
2026-05-07 20:21 -2.71913 -43.62267 20953 ft 207 kts 100°
2026-05-07 20:21 -2.72210 -43.60850 21114 ft 209 kts 99°
2026-05-07 20:21 -2.72510 -43.59429 21306 ft 209 kts 99°
2026-05-07 20:21 -2.72809 -43.58004 21483 ft 209 kts 101°
2026-05-07 20:22 -2.73110 -43.56583 21653 ft 211 kts 100°
2026-05-07 20:22 -2.73415 -43.55142 21819 ft 212 kts 100°
2026-05-07 20:22 -2.73721 -43.53694 21982 ft 213 kts 100°
2026-05-07 20:22 -2.74028 -43.52243 22156 ft 214 kts 100°
2026-05-07 20:23 -2.74337 -43.50784 22325 ft 214 kts 101°
2026-05-07 20:23 -2.74645 -43.49325 22499 ft 216 kts 100°
2026-05-07 20:23 -2.74956 -43.47851 22668 ft 217 kts 100°
2026-05-07 20:23 -2.75270 -43.46366 22812 ft 220 kts 101°
2026-05-07 20:24 -2.75586 -43.44875 23032 ft 218 kts 101°
2026-05-07 20:24 -2.75900 -43.43387 23213 ft 219 kts 101°
2026-05-07 20:24 -2.76214 -43.41898 23392 ft 220 kts 100°
2026-05-07 20:24 -2.76531 -43.40398 23550 ft 221 kts 101°
2026-05-07 20:25 -2.76849 -43.38890 23670 ft 222 kts 101°
2026-05-07 20:25 -2.77169 -43.37381 23841 ft 221 kts 101°
2026-05-07 20:25 -2.77487 -43.35874 24002 ft 221 kts 101°
2026-05-07 20:25 -2.77800 -43.34384 24126 ft 223 kts 101°
2026-05-07 20:26 -2.78122 -43.32866 24268 ft 223 kts 102°
2026-05-07 20:26 -2.78444 -43.31343 24409 ft 224 kts 102°
2026-05-07 20:26 -2.78765 -43.29821 24560 ft 224 kts 102°
2026-05-07 20:26 -2.79086 -43.28298 24702 ft 224 kts 102°
2026-05-07 20:27 -2.79408 -43.26774 24844 ft 224 kts 102°
2026-05-07 20:27 -2.79732 -43.25244 24987 ft 225 kts 102°
2026-05-07 20:27 -2.80054 -43.23714 25125 ft 225 kts 102°
2026-05-07 20:27 -2.80378 -43.22178 25266 ft 226 kts 102°
2026-05-07 20:28 -2.80703 -43.20641 25406 ft 226 kts 102°
2026-05-07 20:28 -2.81024 -43.19119 25535 ft 227 kts 103°
2026-05-07 20:28 -2.81349 -43.17577 25671 ft 227 kts 103°
2026-05-07 20:28 -2.81676 -43.16031 25802 ft 227 kts 103°
2026-05-07 20:29 -2.82003 -43.14480 25934 ft 228 kts 103°
2026-05-07 20:29 -2.82330 -43.12927 26066 ft 228 kts 103°
2026-05-07 20:29 -2.82659 -43.11369 26184 ft 229 kts 103°
2026-05-07 20:29 -2.82988 -43.09811 26326 ft 229 kts 103°
2026-05-07 20:30 -2.83317 -43.08251 26456 ft 230 kts 103°
2026-05-07 20:30 -2.83647 -43.06685 26584 ft 230 kts 103°
2026-05-07 20:30 -2.83975 -43.05130 26711 ft 230 kts 103°
2026-05-07 20:30 -2.84306 -43.03561 26835 ft 231 kts 103°
2026-05-07 20:31 -2.84638 -43.01987 26965 ft 231 kts 103°
2026-05-07 20:31 -2.84970 -43.00411 27088 ft 232 kts 103°
2026-05-07 20:31 -2.85299 -42.98851 27208 ft 232 kts 103°
2026-05-07 20:31 -2.85632 -42.97272 27332 ft 233 kts 104°
2026-05-07 20:32 -2.85958 -42.95725 27446 ft 233 kts 104°
2026-05-07 20:32 -2.86269 -42.94251 27562 ft 233 kts 104°
2026-05-07 20:32 -2.86572 -42.92811 27670 ft 234 kts 104°
2026-05-07 20:32 -2.86908 -42.91218 27787 ft 234 kts 104°
2026-05-07 20:33 -2.87244 -42.89624 27903 ft 235 kts 104°
2026-05-07 20:33 -2.87581 -42.88025 28019 ft 235 kts 104°
2026-05-07 20:33 -2.87804 -42.86965 28095 ft 235 kts 104°
2026-05-07 20:33 -2.88257 -42.84818 28247 ft 236 kts 104°
2026-05-07 20:34 -2.88480 -42.83754 28326 ft 236 kts 104°
2026-05-07 20:34 -2.88820 -42.82145 28437 ft 237 kts 104°
2026-05-07 20:34 -2.89159 -42.80536 28542 ft 237 kts 104°
2026-05-07 20:34 -2.89499 -42.78918 28652 ft 237 kts 104°
2026-05-07 20:35 -2.89840 -42.77302 28765 ft 238 kts 104°
2026-05-07 20:35 -2.90181 -42.75681 28869 ft 238 kts 104°
2026-05-07 20:35 -2.90527 -42.74044 28893 ft 243 kts 104°
2026-05-07 20:35 -2.90880 -42.72373 28898 ft 248 kts 104°
2026-05-07 20:36 -2.91239 -42.70674 28905 ft 252 kts 104°
2026-05-07 20:36 -2.91604 -42.68938 28908 ft 257 kts 104°
2026-05-07 20:36 -2.91975 -42.67170 28906 ft 261 kts 104°
2026-05-07 20:36 -2.92352 -42.65376 28906 ft 265 kts 104°
2026-05-07 20:37 -2.92735 -42.63560 28907 ft 269 kts 104°
2026-05-07 20:37 -2.93123 -42.61717 28908 ft 272 kts 104°
2026-05-07 20:37 -2.93514 -42.59854 28902 ft 275 kts 104°
2026-05-07 20:37 -2.93911 -42.57971 28908 ft 278 kts 104°
2026-05-07 20:38 -2.94310 -42.56071 28905 ft 281 kts 104°
2026-05-07 20:38 -2.94709 -42.54179 28907 ft 283 kts 104°
2026-05-07 20:38 -2.95115 -42.52244 28907 ft 285 kts 104°
2026-05-07 20:38 -2.95525 -42.50298 28907 ft 287 kts 104°
2026-05-07 20:39 -2.95937 -42.48340 28908 ft 288 kts 104°
2026-05-07 20:39 -2.96351 -42.46373 28907 ft 290 kts 104°
2026-05-07 20:39 -2.96766 -42.44395 28907 ft 291 kts 104°
2026-05-07 20:39 -2.97184 -42.42412 28906 ft 292 kts 104°
2026-05-07 20:40 -2.97603 -42.40419 28907 ft 293 kts 103°
2026-05-07 20:40 -2.98023 -42.38420 28908 ft 294 kts 104°
2026-05-07 20:40 -2.98443 -42.36417 28908 ft 295 kts 104°
2026-05-07 20:40 -2.98867 -42.34406 28910 ft 296 kts 104°
2026-05-07 20:41 -2.99290 -42.32395 28906 ft 296 kts 104°
2026-05-07 20:41 -2.99709 -42.30395 28907 ft 297 kts 104°
2026-05-07 20:41 -3.00134 -42.28375 28910 ft 297 kts 104°
2026-05-07 20:41 -3.00560 -42.26347 28907 ft 298 kts 104°
2026-05-07 20:42 -3.00987 -42.24317 28907 ft 298 kts 104°
2026-05-07 20:42 -3.01413 -42.22285 28911 ft 299 kts 104°
2026-05-07 20:42 -3.01840 -42.20252 28910 ft 299 kts 104°
2026-05-07 20:42 -3.02269 -42.18215 28908 ft 299 kts 103°
2026-05-07 20:43 -3.02697 -42.16177 28907 ft 300 kts 103°
2026-05-07 20:43 -3.03124 -42.14137 28907 ft 300 kts 103°
2026-05-07 20:43 -3.03544 -42.12084 28908 ft 300 kts 103°
2026-05-07 20:44 -3.04375 -42.07980 28911 ft 301 kts 103°
2026-05-07 20:44 -3.05207 -42.03904 28905 ft 301 kts 103°
2026-05-07 20:45 -3.06043 -41.99796 28906 ft 301 kts 103°
2026-05-07 20:45 -3.06881 -41.95686 28903 ft 302 kts 103°
2026-05-07 20:46 -3.07720 -41.91566 28901 ft 302 kts 103°
2026-05-07 20:46 -3.08558 -41.87447 28900 ft 302 kts 103°
2026-05-07 20:47 -3.09399 -41.83318 28899 ft 303 kts 103°
2026-05-07 20:47 -3.10239 -41.79191 28901 ft 303 kts 103°
2026-05-07 20:48 -3.11079 -41.75086 28901 ft 303 kts 103°
2026-05-07 20:48 -3.11941 -41.70957 28901 ft 303 kts 103°
2026-05-07 20:49 -3.12797 -41.66822 28901 ft 303 kts 103°
2026-05-07 20:49 -3.13655 -41.62687 28906 ft 303 kts 103°
2026-05-07 20:50 -3.14513 -41.58550 28907 ft 304 kts 103°
2026-05-07 20:50 -3.15366 -41.54433 28910 ft 304 kts 103°
2026-05-07 20:51 -3.16219 -41.50320 28915 ft 304 kts 103°
2026-05-07 20:51 -3.17077 -41.46178 28916 ft 304 kts 103°
2026-05-07 20:52 -3.17936 -41.42034 28916 ft 304 kts 103°
2026-05-07 20:52 -3.18793 -41.37892 28916 ft 304 kts 103°
2026-05-07 20:53 -3.19652 -41.33746 28913 ft 304 kts 103°
2026-05-07 20:53 -3.20512 -41.29594 28911 ft 304 kts 103°
2026-05-07 20:54 -3.21369 -41.25449 28915 ft 304 kts 103°
2026-05-07 20:54 -3.22228 -41.21299 28913 ft 304 kts 103°
2026-05-07 20:55 -3.23081 -41.17178 28915 ft 304 kts 103°
2026-05-07 20:55 -3.23940 -41.13027 28911 ft 304 kts 103°
2026-05-07 20:56 -3.24798 -41.08878 28915 ft 304 kts 103°
2026-05-07 20:56 -3.25656 -41.04729 28912 ft 304 kts 103°
2026-05-07 20:57 -3.26512 -41.00583 28915 ft 304 kts 103°
2026-05-07 20:57 -3.27370 -40.96433 28915 ft 304 kts 103°
2026-05-07 20:58 -3.28227 -40.92284 28910 ft 304 kts 103°
2026-05-07 20:58 -3.29079 -40.88165 28910 ft 304 kts 103°
2026-05-07 20:59 -3.29934 -40.84014 28911 ft 304 kts 103°
2026-05-07 20:59 -3.30790 -40.79864 28911 ft 304 kts 103°
2026-05-07 21:00 -3.31645 -40.75713 28911 ft 304 kts 103°
2026-05-07 21:00 -3.32499 -40.71565 28910 ft 304 kts 103°
2026-05-07 21:01 -3.33355 -40.67415 28907 ft 305 kts 102°
2026-05-07 21:01 -3.34203 -40.63289 28907 ft 305 kts 102°
2026-05-07 21:02 -3.35060 -40.59132 28911 ft 305 kts 102°
2026-05-07 21:02 -3.35915 -40.54974 28911 ft 305 kts 102°
2026-05-07 21:02 -3.36471 -40.52935 28909 ft 303 kts 114°
2026-05-07 21:03 -3.37505 -40.51107 28903 ft 301 kts 128°
2026-05-07 21:03 -3.40265 -40.47963 28911 ft 301 kts 133°
2026-05-07 21:04 -3.43032 -40.44825 28912 ft 301 kts 133°
2026-05-07 21:04 -3.45809 -40.41690 28913 ft 301 kts 133°
2026-05-07 21:05 -3.48583 -40.38554 28913 ft 301 kts 133°
2026-05-07 21:05 -3.51341 -40.35435 28915 ft 301 kts 133°
2026-05-07 21:05 -3.52728 -40.33867 28914 ft 300 kts 133°
2026-05-07 21:06 -3.54113 -40.32302 28914 ft 300 kts 133°
2026-05-07 21:06 -3.55498 -40.30737 28913 ft 300 kts 133°
2026-05-07 21:06 -3.56881 -40.29173 28913 ft 299 kts 133°
2026-05-07 21:06 -3.58262 -40.27612 28913 ft 299 kts 133°
2026-05-07 21:07 -3.59640 -40.26053 28915 ft 299 kts 133°
2026-05-07 21:07 -3.61013 -40.24495 28912 ft 299 kts 133°
2026-05-07 21:07 -3.62329 -40.23006 28909 ft 299 kts 133°
2026-05-07 21:07 -3.63709 -40.21451 28908 ft 299 kts 133°
2026-05-07 21:08 -3.65066 -40.19917 28908 ft 299 kts 133°
2026-05-07 21:08 -3.66442 -40.18360 28908 ft 299 kts 133°
2026-05-07 21:08 -3.67820 -40.16801 28908 ft 298 kts 133°
2026-05-07 21:08 -3.69197 -40.15245 28908 ft 298 kts 133°
2026-05-07 21:09 -3.70570 -40.13690 28908 ft 298 kts 133°
2026-05-07 21:09 -3.71944 -40.12136 28908 ft 298 kts 133°
2026-05-07 21:09 -3.73319 -40.10581 28909 ft 298 kts 133°
2026-05-07 21:09 -3.74689 -40.09030 28906 ft 298 kts 133°
2026-05-07 21:10 -3.76066 -40.07477 28906 ft 298 kts 133°
2026-05-07 21:10 -3.77441 -40.05928 28906 ft 298 kts 133°
2026-05-07 21:10 -3.78816 -40.04376 28906 ft 298 kts 133°
2026-05-07 21:10 -3.80191 -40.02823 28914 ft 298 kts 133°
2026-05-07 21:11 -3.81569 -40.01267 28916 ft 298 kts 133°
2026-05-07 21:11 -3.82947 -39.99713 28916 ft 298 kts 133°
2026-05-07 21:11 -3.85703 -39.96601 28916 ft 299 kts 133°
2026-05-07 21:12 -3.87080 -39.95046 28919 ft 299 kts 133°
2026-05-07 21:12 -3.88456 -39.93493 28922 ft 299 kts 133°
2026-05-07 21:12 -3.89838 -39.91933 28922 ft 299 kts 133°
2026-05-07 21:12 -3.91216 -39.90376 28922 ft 299 kts 133°
2026-05-07 21:13 -3.92595 -39.88820 28916 ft 299 kts 133°
2026-05-07 21:13 -3.93977 -39.87260 28916 ft 299 kts 133°
2026-05-07 21:13 -3.95337 -39.85723 28916 ft 299 kts 133°
2026-05-07 21:13 -3.96718 -39.84163 28919 ft 299 kts 133°
2026-05-07 21:14 -3.98096 -39.82606 28922 ft 299 kts 133°
2026-05-07 21:14 -3.99477 -39.81047 28922 ft 299 kts 133°
2026-05-07 21:14 -4.00859 -39.79486 28920 ft 299 kts 133°
2026-05-07 21:14 -4.02242 -39.77924 28919 ft 300 kts 133°
2026-05-07 21:15 -4.03624 -39.76363 28917 ft 300 kts 133°
2026-05-07 21:15 -4.05009 -39.74798 28916 ft 300 kts 133°
2026-05-07 21:15 -4.06395 -39.73232 28916 ft 300 kts 133°
2026-05-07 21:15 -4.07779 -39.71669 28916 ft 300 kts 133°
2026-05-07 21:16 -4.09164 -39.70104 28920 ft 300 kts 133°
2026-05-07 21:16 -4.10547 -39.68541 28920 ft 300 kts 133°
2026-05-07 21:16 -4.11931 -39.66976 28921 ft 300 kts 134°
2026-05-07 21:16 -4.13315 -39.65406 28921 ft 301 kts 133°
2026-05-07 21:17 -4.16044 -39.62267 28924 ft 301 kts 133°
2026-05-07 21:17 -4.18802 -39.59110 28924 ft 301 kts 133°
2026-05-07 21:18 -4.21558 -39.55954 28924 ft 301 kts 133°
2026-05-07 21:18 -4.24320 -39.52789 28926 ft 302 kts 133°
2026-05-07 21:19 -4.27084 -39.49622 28927 ft 302 kts 133°
2026-05-07 21:19 -4.29851 -39.46453 28924 ft 302 kts 133°
2026-05-07 21:20 -4.32600 -39.43302 28927 ft 302 kts 133°
2026-05-07 21:20 -4.35363 -39.40134 28927 ft 302 kts 133°
2026-05-07 21:21 -4.38125 -39.36967 28923 ft 302 kts 133°
2026-05-07 21:21 -4.40885 -39.33802 28927 ft 301 kts 132°
2026-05-07 21:22 -4.43643 -39.30638 28932 ft 301 kts 133°
2026-05-07 21:22 -4.46405 -39.27470 28930 ft 302 kts 133°
2026-05-07 21:23 -4.49150 -39.24321 28929 ft 302 kts 133°
2026-05-07 21:23 -4.51913 -39.21152 28929 ft 302 kts 133°
2026-05-07 21:24 -4.54677 -39.17980 28929 ft 302 kts 133°
2026-05-07 21:24 -4.57443 -39.14806 28929 ft 302 kts 133°
2026-05-07 21:25 -4.60138 -39.11700 28924 ft 303 kts 131°
2026-05-07 21:25 -4.62849 -39.08458 28921 ft 303 kts 131°
2026-05-07 21:26 -4.65110 -39.05775 28920 ft 303 kts 131°
2026-05-07 21:26 -4.68271 -39.02021 28920 ft 303 kts 131°
2026-05-07 21:27 -4.70994 -38.98792 28917 ft 303 kts 131°
2026-05-07 21:27 -4.73720 -38.95559 28918 ft 303 kts 131°
2026-05-07 21:28 -4.75985 -38.92872 28920 ft 304 kts 132°
2026-05-07 21:28 -4.78714 -38.89634 28920 ft 304 kts 132°
2026-05-07 21:29 -4.81442 -38.86392 28918 ft 304 kts 132°
2026-05-07 21:29 -4.84174 -38.83148 28920 ft 304 kts 132°
2026-05-07 21:30 -4.86908 -38.79901 28918 ft 305 kts 132°
2026-05-07 21:30 -4.89630 -38.76639 28918 ft 305 kts 131°
2026-05-07 21:31 -4.92345 -38.73407 28916 ft 305 kts 132°
2026-05-07 21:31 -4.95078 -38.70152 28920 ft 305 kts 132°
2026-05-07 21:32 -4.97810 -38.66896 28918 ft 305 kts 132°
2026-05-07 21:32 -5.00557 -38.63645 28917 ft 306 kts 131°
2026-05-07 21:33 -5.03282 -38.60372 28920 ft 306 kts 131°
2026-05-07 21:33 -5.06025 -38.57107 28920 ft 306 kts 131°
2026-05-07 21:34 -5.08767 -38.53837 28919 ft 306 kts 132°
2026-05-07 21:34 -5.11491 -38.50588 28920 ft 306 kts 132°
2026-05-07 21:35 -5.14228 -38.47308 28917 ft 306 kts 131°
2026-05-07 21:35 -5.16969 -38.44031 28917 ft 307 kts 132°
2026-05-07 21:36 -5.19710 -38.40751 28911 ft 307 kts 131°
2026-05-07 21:36 -5.22458 -38.37461 28914 ft 307 kts 131°
2026-05-07 21:37 -5.25183 -38.34197 28915 ft 307 kts 131°
2026-05-07 21:37 -5.27930 -38.30908 28919 ft 307 kts 131°
2026-05-07 21:38 -5.30674 -38.27622 28916 ft 307 kts 131°
2026-05-07 21:38 -5.33419 -38.24334 28916 ft 307 kts 131°
2026-05-07 21:39 -5.36164 -38.21047 28913 ft 307 kts 131°
2026-05-07 21:39 -5.38909 -38.17757 28919 ft 307 kts 131°
2026-05-07 21:40 -5.41660 -38.14461 28921 ft 308 kts 131°
2026-05-07 21:40 -5.44409 -38.11166 28920 ft 308 kts 131°
2026-05-07 21:41 -5.47146 -38.07885 28920 ft 308 kts 131°
2026-05-07 21:41 -5.49901 -38.04582 28918 ft 309 kts 131°
2026-05-07 21:42 -5.52607 -38.01338 28920 ft 309 kts 131°
2026-05-07 21:42 -5.55364 -37.98030 28926 ft 309 kts 131°
2026-05-07 21:43 -5.58123 -37.94722 28922 ft 309 kts 131°
2026-05-07 21:43 -5.60883 -37.91410 28921 ft 309 kts 131°
2026-05-07 21:44 -5.63626 -37.88120 28921 ft 310 kts 131°
2026-05-07 21:44 -5.66391 -37.84802 28924 ft 310 kts 131°
2026-05-07 21:45 -5.69157 -37.81482 28924 ft 310 kts 131°
2026-05-07 21:45 -5.71924 -37.78160 28927 ft 310 kts 131°
2026-05-07 21:46 -5.74695 -37.74833 28925 ft 310 kts 131°
2026-05-07 21:46 -5.77464 -37.71507 28924 ft 310 kts 131°
2026-05-07 21:47 -5.80238 -37.68177 28927 ft 311 kts 131°
2026-05-07 21:47 -5.83002 -37.64857 28927 ft 311 kts 131°
2026-05-07 21:48 -5.85764 -37.61502 28930 ft 312 kts 131°
2026-05-07 21:48 -5.88533 -37.58142 28930 ft 312 kts 131°
2026-05-07 21:49 -5.91299 -37.54782 28930 ft 312 kts 131°
2026-05-07 21:49 -5.94065 -37.51423 28933 ft 312 kts 131°
2026-05-07 21:50 -5.96833 -37.48061 28929 ft 312 kts 131°
2026-05-07 21:50 -5.99603 -37.44696 28929 ft 312 kts 131°
2026-05-07 21:51 -6.02355 -37.41353 28928 ft 313 kts 131°
2026-05-07 21:51 -6.05121 -37.37982 28936 ft 313 kts 131°
2026-05-07 21:52 -6.07890 -37.34603 28931 ft 313 kts 130°
2026-05-07 21:52 -6.10662 -37.31222 28931 ft 313 kts 130°
2026-05-07 21:53 -6.13435 -37.27837 28934 ft 314 kts 130°
2026-05-07 21:53 -6.16210 -37.24451 28934 ft 314 kts 130°
2026-05-07 21:54 -6.18989 -37.21059 28937 ft 314 kts 130°
2026-05-07 21:54 -6.21752 -37.17686 28937 ft 314 kts 130°
2026-05-07 21:55 -6.24533 -37.14290 28934 ft 315 kts 130°
2026-05-07 21:55 -6.27316 -37.10892 28940 ft 315 kts 130°
2026-05-07 21:56 -6.30105 -37.07485 28938 ft 315 kts 130°
2026-05-07 21:56 -6.32893 -37.04079 28937 ft 315 kts 130°
2026-05-07 21:57 -6.35631 -37.00733 28945 ft 315 kts 130°
2026-05-07 21:57 -6.38397 -36.97352 28945 ft 315 kts 130°
2026-05-07 21:58 -6.41187 -36.93944 28944 ft 315 kts 131°
2026-05-07 21:58 -6.43981 -36.90545 28943 ft 315 kts 131°
2026-05-07 21:59 -6.46753 -36.87162 28945 ft 312 kts 130°
2026-05-07 21:59 -6.49495 -36.83800 28953 ft 310 kts 131°
2026-05-07 22:00 -6.52212 -36.80486 28954 ft 308 kts 130°
2026-05-07 22:00 -6.54927 -36.77167 28954 ft 307 kts 131°
2026-05-07 22:01 -6.57631 -36.73858 28965 ft 306 kts 130°
2026-05-07 22:01 -6.60325 -36.70555 28964 ft 305 kts 131°
2026-05-07 22:02 -6.63019 -36.67254 28963 ft 305 kts 130°
2026-05-07 22:02 -6.65705 -36.63961 28967 ft 304 kts 130°
2026-05-07 22:03 -6.68391 -36.60670 28967 ft 304 kts 130°
2026-05-07 22:03 -6.71077 -36.57382 28966 ft 304 kts 131°
2026-05-07 22:04 -6.73762 -36.54094 28979 ft 304 kts 130°
2026-05-07 22:04 -6.76451 -36.50800 28980 ft 305 kts 130°
2026-05-07 22:05 -6.79143 -36.47503 28982 ft 305 kts 130°
2026-05-07 22:05 -6.81820 -36.44223 28985 ft 305 kts 130°
2026-05-07 22:06 -6.84512 -36.40924 28987 ft 305 kts 130°
2026-05-07 22:06 -6.87207 -36.37620 28987 ft 305 kts 130°
2026-05-07 22:07 -6.90051 -36.34469 28989 ft 303 kts 143°
2026-05-07 22:07 -6.93313 -36.31780 28992 ft 303 kts 142°
2026-05-07 22:08 -6.96524 -36.29075 28993 ft 303 kts 142°
2026-05-07 22:08 -6.98153 -36.27719 28852 ft 308 kts 143°
2026-05-07 22:08 -6.99854 -36.26335 28476 ft 321 kts 143°
2026-05-07 22:09 -7.01612 -36.24887 28110 ft 331 kts 142°
2026-05-07 22:09 -7.03363 -36.23422 27755 ft 339 kts 142°
2026-05-07 22:09 -7.05200 -36.21890 27397 ft 346 kts 142°
2026-05-07 22:09 -7.07075 -36.20334 27043 ft 351 kts 142°
2026-05-07 22:10 -7.08972 -36.18757 26689 ft 356 kts 141°
2026-05-07 22:10 -7.10889 -36.17161 26342 ft 359 kts 141°
2026-05-07 22:10 -7.12823 -36.15552 25998 ft 361 kts 141°
2026-05-07 22:10 -7.14765 -36.13937 25662 ft 363 kts 141°
2026-05-07 22:11 -7.16715 -36.12315 25321 ft 364 kts 141°
2026-05-07 22:11 -7.18671 -36.10687 24991 ft 365 kts 141°
2026-05-07 22:11 -7.20626 -36.09059 24661 ft 365 kts 141°
2026-05-07 22:11 -7.22586 -36.07428 24336 ft 365 kts 141°
2026-05-07 22:12 -7.24541 -36.05801 24010 ft 365 kts 140°
2026-05-07 22:12 -7.26469 -36.04195 23695 ft 364 kts 140°
2026-05-07 22:12 -7.28445 -36.02549 23323 ft 363 kts 140°
2026-05-07 22:12 -7.30365 -36.00949 22940 ft 362 kts 140°
2026-05-07 22:13 -7.32326 -35.99319 22555 ft 360 kts 140°
2026-05-07 22:13 -7.34224 -35.97737 22185 ft 358 kts 140°
2026-05-07 22:13 -7.36139 -35.96141 21812 ft 355 kts 140°
2026-05-07 22:13 -7.38033 -35.94563 21445 ft 352 kts 140°
2026-05-07 22:14 -7.39912 -35.92998 21085 ft 349 kts 140°
2026-05-07 22:14 -7.41792 -35.91462 20723 ft 346 kts 144°
2026-05-07 22:14 -7.43890 -35.90311 20359 ft 342 kts 158°
2026-05-07 22:14 -7.46155 -35.89643 20007 ft 337 kts 171°
2026-05-07 22:15 -7.48472 -35.89393 19662 ft 333 kts 176°
2026-05-07 22:15 -7.50772 -35.89163 19319 ft 330 kts 175°
2026-05-07 22:15 -7.53016 -35.88924 18984 ft 327 kts 175°
2026-05-07 22:15 -7.55270 -35.88702 18649 ft 324 kts 176°
2026-05-07 22:16 -7.57501 -35.88487 18314 ft 321 kts 175°
2026-05-07 22:16 -7.59711 -35.88266 17932 ft 317 kts 175°
2026-05-07 22:16 -7.61895 -35.88043 17549 ft 314 kts 175°
2026-05-07 22:16 -7.64059 -35.87829 17174 ft 311 kts 175°
2026-05-07 22:17 -7.66207 -35.87617 16802 ft 308 kts 175°
2026-05-07 22:17 -7.68331 -35.87403 16434 ft 306 kts 174°
2026-05-07 22:17 -7.70437 -35.87192 16068 ft 303 kts 174°
2026-05-07 22:17 -7.72530 -35.86984 15709 ft 301 kts 174°
2026-05-07 22:18 -7.74607 -35.86776 15358 ft 300 kts 174°
2026-05-07 22:18 -7.78786 -35.86353 14665 ft 302 kts 174°
2026-05-07 22:18 -7.80883 -35.86151 14326 ft 302 kts 174°
2026-05-07 22:19 -7.82974 -35.85942 13986 ft 301 kts 173°
2026-05-07 22:19 -7.85054 -35.85732 13628 ft 300 kts 173°
2026-05-07 22:19 -7.87125 -35.85525 13251 ft 298 kts 173°
2026-05-07 22:19 -7.89137 -35.85325 12882 ft 296 kts 173°
2026-05-07 22:20 -7.91113 -35.85126 12523 ft 294 kts 173°
2026-05-07 22:20 -7.93153 -35.84925 12154 ft 292 kts 173°
2026-05-07 22:20 -7.95166 -35.84722 11791 ft 290 kts 173°
2026-05-07 22:20 -7.97172 -35.84523 11432 ft 289 kts 173°
2026-05-07 22:21 -7.99166 -35.84324 11076 ft 287 kts 173°
2026-05-07 22:21 -8.01145 -35.84126 10729 ft 285 kts 172°
2026-05-07 22:21 -8.02477 -35.83991 10493 ft 284 kts 172°
2026-05-07 22:21 -8.04432 -35.83796 10149 ft 281 kts 172°
2026-05-07 22:22 -8.06371 -35.83602 9797 ft 279 kts 172°
2026-05-07 22:22 -8.08274 -35.83413 9420 ft 277 kts 172°
2026-05-07 22:22 -8.10189 -35.83220 9043 ft 275 kts 172°
2026-05-07 22:22 -8.12090 -35.83030 8671 ft 273 kts 172°
2026-05-07 22:23 -8.13974 -35.82843 8309 ft 271 kts 172°
2026-05-07 22:23 -8.15839 -35.82655 7944 ft 269 kts 172°
2026-05-07 22:23 -8.17707 -35.82469 7587 ft 267 kts 172°
2026-05-07 22:23 -8.19552 -35.82284 7231 ft 266 kts 172°
2026-05-07 22:24 -8.21386 -35.82099 6879 ft 264 kts 173°
2026-05-07 22:24 -8.23216 -35.82091 6530 ft 265 kts 187°
2026-05-07 22:24 -8.24998 -35.82547 6171 ft 261 kts 192°
2026-05-07 22:24 -8.26736 -35.82949 5801 ft 253 kts 190°
2026-05-07 22:25 -8.28350 -35.83598 5436 ft 250 kts 209°
2026-05-07 22:25 -8.29673 -35.84705 5066 ft 246 kts 227°
2026-05-07 22:25 -8.30593 -35.86154 4708 ft 248 kts 238°
2026-05-07 22:25 -8.31132 -35.87828 4332 ft 256 kts 259°
2026-05-07 22:26 -8.31109 -35.89566 4032 ft 231 kts 279°
2026-05-07 22:26 -8.30753 -35.91001 4015 ft 203 kts 279°
2026-05-07 22:26 -8.30457 -35.92413 3894 ft 203 kts 281°
2026-05-07 22:26 -8.30097 -35.93660 3355 ft 169 kts 284°
2026-05-07 22:27 -8.29810 -35.94831 3055 ft 145 kts 279°
2026-05-07 22:27 -8.29601 -35.95739 2682 ft 133 kts 277°
2026-05-07 22:27 -8.29406 -35.96641 2422 ft 126 kts 281°
2026-05-07 22:27 -8.29217 -35.97481 2266 ft 121 kts 279°
2026-05-07 22:28 -8.29032 -35.98308 2152 ft 120 kts 280°
2026-05-07 22:28 -8.28831 -35.99125 2029 ft 118 kts 282°
2026-05-07 22:28 -8.28608 -35.99921 1925 ft 117 kts 284°
2026-05-07 22:28 -8.28409 -36.00704 1848 ft 113 kts 280°
2026-05-07 22:29 -8.28237 -36.01359 1849 ft 81 kts 283°
2026-05-07 22:29 -8.28131 -36.01762 1868 ft 37 kts 287°
2026-05-07 22:29 -8.28090 -36.01896 1873 ft 9 kts 287°
2026-05-07 22:29 -8.28079 -36.01936 1874 ft 6 kts 285°
2026-05-07 22:30 -8.28070 -36.01972 1874 ft 6 kts 283°
2026-05-07 22:30 -8.28058 -36.02029 1876 ft 11 kts 279°
2026-05-07 22:30 -8.28069 -36.02118 1877 ft 8 kts 282°
2026-05-07 22:30 -8.28068 -36.02121 1877 ft 0 kts 309°
2026-05-07 22:32 -8.28044 -36.02132 1877 ft 18 kts
2026-05-07 22:32 -8.28057 -36.02022 1876 ft 26 kts 105°
2026-05-07 22:32 -8.28113 -36.01817 1870 ft 25 kts 105°
2026-05-07 22:33 -8.28164 -36.01631 1859 ft 31 kts 105°
2026-05-07 22:33 -8.28221 -36.01412 1849 ft 32 kts 107°
2026-05-07 22:33 -8.28294 -36.01284 1847 ft 13 kts 119°
2026-05-07 22:33 -8.28344 -36.01203 1844 ft 21 kts 121°
2026-05-07 22:34 -8.28403 -36.01104 1840 ft 8 kts 111°
2026-05-07 22:34 -8.28388 -36.01042 1839 ft 17 kts 76°
2026-05-07 22:34 -8.28414 -36.01017 1839 ft 11 kts 177°
2026-05-07 22:34 -8.28456 -36.01027 1840 ft 0 kts 180°